Regional Weather Roundup
Issued by NWS Grand Forks, ND

Home | Current Version | Previous Version | Graphics & Text | Print | Product List | Glossary On
Versions: 1 2 3 4 5 6 7 8 9 10 11 12 13 14 15 16 17 18 19 20 21 22 23 24 25 26 27 28 29 30 31 32 33 34 35 36 37 38 39 40 41 42 43 44 45 46 47 48 49 50
000
ASUS43 KFGF 180410
RWRFGF
PRAIRIE TO PINES  WEATHER ROUNDUP
NATIONAL WEATHER SERVICE EASTERN NORTH DAKOTA/GRAND FORKS ND
1000 PM CST WED DEC 17 2014

 **SATELLITE DATA USED TO AUGMENT SKY COVER AT AUTOMATED STATIONS**
 *****  WEATHER ACROSS EASTERN NORTH DAKOTA  *****

CITY           SKY/WX    TMP DP  RH WIND       PRES   REMARKS
GRAND FORKS    PTCLDY     6   3  87 W6        30.33R WCI  -4
GRAND FRKS AFB PTCLDY     5   4  98 CALM      30.32S
DEVILS LAKE    PTCLDY     7  -2  66 SE5       30.22S WCI  -2
FARGO          PTCLDY     9   4  80 CALM      30.32S
WAHPETON ARPT  PTCLDY     9   5  85 CALM      30.31F
$$

 ***** WEATHER ACROSS CENTRAL AND WESTERN NORTH DAKOTA  *****

CITY           SKY/WX    TMP DP  RH WIND       PRES   REMARKS
BISMARCK       CLOUDY    17  12  80 SE8       30.18F WCI   7
MINOT          PTCLDY     6   1  80 SE5       30.16F WCI  -3
JAMESTOWN      PTCLDY     7   4  87 SE7       30.22F WCI  -5
MINOT AFB      MOCLDY     3   2  94 SE5       30.16F WCI  -6
GARRISON         N/A      9   7  92 E7        30.14F WCI  -2
WILLISTON      CLOUDY    20  14  77 SE8       30.07F WCI  10
DICKINSON      CLOUDY    18  15  88 SE10      30.02F WCI   6
HETTINGER      CLOUDY    18  15  88 S10       30.05F FOG     WCI   6
$$

 *****  OTHER AIRPORT OBSERVATIONS IN OUR AREA  *****

CITY           SKY/WX    TMP DP  RH WIND       PRES   REMARKS
WALHALLA         N/A      5   5 100 SE3       30.30S
GRAFTON AIRPOR NOT AVBL
VALLEY CITY AR FAIR       9   9 100 E3        30.26F
CANDO          FAIR       1   0  92 SE5       30.24S WCI  -8
CAVALIER APRT  FAIR       7   5  92 CALM      30.31S
GWINNER        CLEAR     10   9  92 MISG      30.28F
SHEYENNE NWR     N/A      3  -1  82 CALM      29.95S
ROLLA          FAIR       7   5  92 S10       30.20S WCI  -8
 ***** THE ABOVE OBSERVATIONS ARE NON NWS ARE NOT QUALITY
       CONTROLLED AND MAY MIS-REPORT RAIN FOR SNOW...
$$

  *****  WEATHER ACROSS NORTHERN MINNESOTA  *****

CITY           SKY/WX    TMP DP  RH WIND       PRES   REMARKS
FLAG ISLAND    MOCLDY    10   7  85 CALM      30.31S
WARROAD        PTCLDY     3   0  85 CALM      30.31S
ROSEAU         FAIR       7   1  78 CALM      30.31S
HALLOCK        CLEAR      7   1  78 CALM      30.31S
THF RVR FALLS  CLEAR     12  10  92 E7        30.29S WCI   2
BAUDETTE       MOCLDY     5   0  79 CALM      30.30R
WASKISH        MOCLDY     3   1  92 CALM      30.30S
CROOKSTON      PTCLDY     7   5  92 W3        30.34R
STEPHEN NDAWN    N/A      7   3  85 SW3         N/A
GREENBUSH NDAW   N/A     12   9  85 SE7         N/A  WCI   2
$$
  *****  WEATHER ACROSS CENTRAL AND WEST MINNESOTA  *****

CITY           SKY/WX    TMP DP  RH WIND       PRES   REMARKS
FOSSTON        FAIR       3   1  92 CALM      30.29S
BEMIDJI        PTCLDY     6   2  84 CALM      30.29R
PARK RAPIDS    PTCLDY     6   2  83 CALM      30.28R
ELBOW LAKE     FAIR       7   5  91 CALM      30.29S
WADENA         PTCLDY     5   3  92 CALM      30.28S
DETROIT LAKES  PTCLDY    12   9  85 CALM      30.29S
MOORHEAD       PTCLDY     9   9 100 CALM      30.33S
FERGUS FALLS   MOCLDY    10   9  92 CALM      30.34S
MORRIS MN      MOCLDY     7   3  85 N6        30.28F WCI  -3
STAPLES        MOCLDY     7   7 100 CALM      30.29S
$$
  *****  WEATHER ELSEWHERE ACROSS MINNESOTA  *****

CITY           SKY/WX    TMP DP  RH WIND       PRES   REMARKS
DULUTH         CLOUDY    16  10  77 CALM      30.26R
INTRNTL FALLS  PTCLDY     6   0  76 E3        30.31R
ELY            PTCLDY     1   0  92 CALM      30.28S
CLOQUET        MOCLDY     9   5  85 CALM      30.28R
WHEATON        PTCLDY     3   1  92 CALM      30.31F
BRAINERD       PTCLDY     6   3  87 CALM      30.30R
HIBBING        PTCLDY     4  -1  80 CALM      30.28R
ALEXANDRIA     PTCLDY    11   7  84 CALM      30.28F
SAINT CLOUD    MOCLDY    13   7  77 CALM      30.31S
MINNEAPOLIS    PTCLDY    16   9  74 N3        30.33S
$$

  *****  WEATHER ACROSS SOUTH DAKOTA  *****

CITY           SKY/WX    TMP DP  RH WIND       PRES   REMARKS
SIOUX FALLS    PTCLDY     8   6  92 NE3       30.26R
BROOKINGS      NOT AVBL
WATERTOWN      PTCLDY     6   3  87 CALM      30.22S
HURON          PTCLDY    10   7  87 S6        30.26S WCI   0
SISSETON         N/A      1  -3  83 CALM      30.27F
ABERDEEN       CLOUDY    13   8  81 CALM      30.26S
MITCHELL       MOCLDY    11   8  88 CALM      30.27R
PIERRE         CLOUDY    18  16  92 SE13      30.16F WCI   5
MOBRIDGE       CLOUDY    18  12  77 SE9       30.15F WCI   7
RAPID CITY     CLOUDY    22  20  92 S3        30.01S
$$

  *****  SOME WEATHER IN NEARBY STATES *****

CITY           SKY/WX    TMP DP  RH WIND       PRES   REMARKS
GLASGOW MT     CLOUDY    24  19  81 SE8       29.97F WCI  15
GREAT FALLS MT CLEAR     29  24  82 S12       29.87S WCI  19
CHEYENNE WY    PTCLDY    28  16  60 W9        29.95R WCI  19
SCOTTSBLUFF NE FOG       19  18  95 CALM      30.01R VSB 1/4
OMAHA NE       CLOUDY    28  19  69 E5        30.28S WCI  23
DES MOINES IA  MOCLDY    24  16  71 E6        30.30S WCI  17
DAVENPORT IA   PTCLDY    14  11  87 N3        30.31R
CHICAGO IL     CLOUDY    25  16  68 NW9       30.26R WCI  15
EAU CLAIRE WI  CLOUDY    18  11  74 W6        30.30R WCI  10
LA CROSSE WI   CLOUDY    19  12  74 NW6       30.32S WCI  11
$$

  *****  SOME NATIONAL WEATHER *****

CITY           SKY/WX    TMP DP  RH WIND       PRES   REMARKS
LA GUARDIA NY  CLOUDY    43  27  53 W14G25    29.89S
RALEIGH NC     PTCLDY    41  34  76 CALM      30.08S
ATLANTA GA     MOCLDY    39  34  82 NW7       30.14F
NEW ORLEANS LA CLOUDY    52  42  69 CALM      30.20S
OKLAHOMA CITY  DRIZZLE   38  36  92 SE12      30.12F FOG
ALBUQUERQUE NM MOCLDY    37  35  92 SE6       30.08R
SALT LAKE CITY CLOUDY    34  31  88 NE3       30.05R
LOS ANGELES CA PTCLDY    59  43  55 CALM      30.09R
BOISE ID       CLOUDY    41  33  73 SE7       30.01R
SEATTLE WA     LGT RAIN  46  43  89 CALM      29.91R
$$

*** WEATHER ACROSS MANITOBA...SASKATCHEWAN AND ONTARIO ***
                ***ONTARIO***

CITY           SKY/WX    TMP DP  RH WIND       PRES   REMARKS
GERALDTON      CLEAR     -4  -9  77 NW2       30.30S
THUNDER BAY    CLEAR      1   0  92 SW6       30.36S WCI -10
SIOUX LOOKOUT  CLEAR    -11 -17  77 CALM      30.32F
TORONTO        FLURRIES  30  27  86 W16       29.96F WCI  19
BIG TROUT LK   CLEAR     -2  -6  84 SW5       30.27S WCI -12
PICKLE LAKE    NOT AVBL
DRYDEN         CLEAR     -2  -4  92 E3        30.31S
KENORA         CLEAR      7  -2  66 E7        30.30S WCI  -5
$$
                *** MANITOBA***

CITY           SKY/WX    TMP DP  RH WIND       PRES   REMARKS
BRANDON        CLEAR     -4  -8  84 SE2       30.22F
DAUPHIN        CLEAR      0  -4  85 W6        30.21S WCI -12
ISLAND LAKE    CLEAR      0  -8  71 S5        30.26F WCI -10
PILOT MOUND      N/A      0  -4  85 S8          N/A  WCI -15
THE PAS        CLEAR      3   0  85 SE6       30.11F WCI  -8
THOMPSON       PTCLDY     7   5  92 S7        30.12F WCI  -5
WINNIPEG       CLEAR      7   3  85 VRB2      30.32S
LYNN LAKE      LGT SNOW  14  12  92 S5        30.00F WCI   6
CHURCHILL      CLEAR      5   1  85 SW10      30.01S WCI -10
GILLAM         FLURRIES  10   7  85 SW14      30.12F WCI  -5
$$
                ***SASKATCHEWAN***

CITY           SKY/WX    TMP DP  RH WIND       PRES   REMARKS
ESTEVAN        FLURRIES  16  12  86 S12       30.09F WCI   3
KINDERSLEY     PTCLDY    14  12  92 SE6       29.88S WCI   5
LLOYDMINSTER   CLOUDY    18  16  93 S9        29.88S FOG     WCI   6
PRINCE ALBERT  FLURRIES  18  14  86 S12       30.01F WCI   5
REGINA         FLURRIES  18  14  86 S15       30.04F WCI   3
YORKTON        FLURRIES   9   5  85 SE8       30.11F WCI  -4
N. BATTLEFORD  CLOUDY    18  16  93 SE8       29.95F WCI   7
LA RONGE       CLOUDY    16  16 100 S9        29.99F WCI   4
SASKATOON      CLOUDY    18  14  86 S13       29.99F WCI   4
SWIFT CURRENT  CLOUDY    21  19  93 S16G22    29.88R WCI   7
$$
NOTE: THESE ARE AUTOMATED STATIONS WITH LIMITED QUALITY CONTROL
      "FAIR" INDICATES FEW OR NO CLOUDS BELOW 12,000 FEET WITH NO
      SIGNIFICANT WEATHER AND/OR OBSTRUCTIONS TO VISIBILITY.
      SKY/WX - SKY CONDITION AND SIGNIFICANT WEATHER.
      TMP - AIR TEMPERATURE.    DP   - DEWPOINT TEMPERATURE.
      RH  - RELATIVE HUMIDITY.  PRES - PRESSURE.
      HX  - HEAT INDEX.         WCI  - WIND CHILL INDEX.
$



USA.gov is the U.S. government's official web portal to all federal, state and local government web resources and services.